Weather History for KSNT - November, 2012

Change the Weather History Date:

Thursday, November 1, 2012

  Actual Average Record
Temperature  
Mean Temperature 41 °F 32 °F  
Max Temperature 51 °F 45 °F 66 °F (1988)
Min Temperature 31 °F 18 °F -10 °F (2002)
Degree Days  
Heating Degree Days 24 33  
Month to date heating degree days 24 33  
Since 1 July heating degree days 1611 1897  
Cooling Degree Days 0 0  
Month to date cooling degree days 0 0  
Year to date cooling degree days 3 3  
Moisture  
Dew Point 32 °F    
Average Humidity 69    
Maximum Humidity 96    
Minimum Humidity 42    
Precipitation  
Precipitation 0.09 in 0.10 in 0.44 in (1919)
Month to date precipitation 0.09 0.10  
Year to date precipitation 18.14 13.78  
Sea Level Pressure  
Sea Level Pressure 29.87 in    
Wind  
Wind Speed 5 mph (SSE)    
Max Wind Speed 15 mph    
Max Gust Speed 26 mph    
T = Trace of Precipitation, MM = Missing Value Source: NWS Daily Summary

Daily Weather History Graph

Daily Weather History Graph

Search for Another Location

Airport or City:

Trip Planner

Search our weather history database for the weather conditions in past years. The results will help you decide how hot, cold, wet, or windy it might be!

Date:

Astronomy

Nov. 01, 2012 Rise Set
Actual Time 8:17 AM MDT 6:28 PM MDT
Civil Twilight 7:47 AM MDT 6:58 PM MDT
Nautical Twilight 7:12 AM MDT 7:33 PM MDT
Astronomical Twilight 6:39 AM MDT 8:06 PM MDT
Moon 8:24 PM MDT (11/1) 10:58 AM MDT (11/1)
Length of Visible Light 11h 11m
Length of Day
10h 11m
Waning Gibbous, 92% of the Moon is Illuminated
Nov 1
Waning Gibbous
Nov 6
Last Quarter
Nov 13
New
Nov 20
First Quarter
Nov 28
Full

Hourly Weather History & Observations

Time (MDT) Temp. Windchill Dew Point Humidity Pressure Visibility Wind Dir Wind Speed Gust Speed Precip Events Conditions
12:51 AM 42.1 °F - 28.9 °F 60% 29.82 in - Calm Calm - N/A   Unknown
1:51 AM 42.1 °F 40.2 °F 28.0 °F 58% 29.80 in - Variable 3.5 mph - N/A   Unknown
2:51 AM 48.0 °F - 28.9 °F 48% 29.77 in - West 9.2 mph 17.3 mph N/A   Unknown
3:51 AM 45.0 °F 41.8 °F 32.0 °F 60% 29.77 in - Variable 5.8 mph - N/A   Unknown
4:51 AM 44.1 °F 41.5 °F 32.0 °F 63% 29.78 in - South 4.6 mph - N/A   Unknown
5:51 AM 44.1 °F 42.5 °F 33.1 °F 65% 29.78 in - Variable 3.5 mph - N/A   Unknown
6:51 AM 42.1 °F 40.2 °F 34.0 °F 73% 29.82 in - South 3.5 mph - N/A   Unknown
7:51 AM 37.9 °F 35.5 °F 35.1 °F 89% 29.83 in - Variable 3.5 mph - 0.01 in   Unknown
8:51 AM 39.0 °F 34.0 °F 35.1 °F 86% 29.86 in - South 6.9 mph - N/A   Unknown
9:51 AM 39.9 °F 35.8 °F 34.0 °F 79% 29.86 in - SE 5.8 mph 16.1 mph N/A   Unknown
10:51 AM 41.0 °F 36.4 °F 34.0 °F 76% 29.86 in - SSE 6.9 mph - N/A   Unknown
11:51 AM 42.1 °F 36.6 °F 33.1 °F 70% 29.84 in - SSE 9.2 mph - N/A   Unknown
12:51 PM 44.1 °F 38.1 °F 33.1 °F 65% 29.85 in - SSE 11.5 mph - N/A   Unknown
1:51 PM 45.0 °F 40.1 °F 34.0 °F 65% 29.83 in - SSE 9.2 mph 17.3 mph N/A   Unknown
2:51 PM 46.0 °F 40.6 °F 25.0 °F 44% 29.80 in - SSW 11.5 mph 19.6 mph N/A   Unknown
3:51 PM 39.0 °F 32.3 °F 33.1 °F 79% 29.88 in - North 10.4 mph 19.6 mph N/A   Unknown
4:51 PM 39.9 °F 34.5 °F 33.1 °F 77% 29.89 in - East 8.1 mph - N/A   Unknown
5:51 PM 39.0 °F - 30.9 °F 73% 29.92 in - Calm Calm - N/A   Unknown
6:51 PM 33.1 °F - 32.0 °F 96% 29.98 in - Calm Calm - 0.08 in   Unknown
7:51 PM 34.0 °F - 32.0 °F 92% 29.99 in - Calm Calm - N/A   Unknown
8:51 PM 33.1 °F 30.0 °F 32.0 °F 96% 29.99 in - Variable 3.5 mph - N/A   Unknown
9:51 PM 33.1 °F - 30.9 °F 92% 29.99 in - Calm Calm - N/A   Unknown
10:51 PM 32.0 °F 28.7 °F 30.9 °F 96% 30.01 in - South 3.5 mph - N/A   Unknown
11:51 PM 32.0 °F 28.7 °F 30.0 °F 92% 30.03 in - NNE 3.5 mph - N/A   Unknown